Zurück zum Katalog

STARLINK-37051

AktivKommunikationVLEO
NORAD 68080·PAYLOAD·🇺🇸 United States

Gestartet Mar 4, 2026 von Vandenberg Space Force Base

Loading…

Nächste Überflüge (nächste 24 Stunden)

TLE

AktuellSource: CelesTrak SupGP

Epoche: Sep 14, 2026, 22:59 UTC

1 68080C 26042M   26257.95812500 -.00007097  00000+0 -20968-3 0  2577
2 68080  53.1590  13.7019 0001161  76.5005 351.3055 15.34395219    15

Verfolge STARLINK-37051 in Echtzeit mit AllMySat

Download on the App Store